QPF
0.02 0.03 0.02 0.02 0.02 0.02 0.03 0.03 0.03 0.04 0.05 0.06 0.07 0.08 0.07 0.06 0.07 0.07 0.06 0.04 0.04 0.03 0.03 0.02 0.02 0.01 0.01 0.01 0.01 0.02 0.02 0.02 0.03 0.01 0.01 0.01 0.02 0.02 0.02 0.02 0.03 0.03 0.05
0.02 0.02 0.01 0.02 0.02 0.02 0.02 0.02 0.02 0.03 0.03 0.04 0.05 0.07 0.07 0.06 0.06 0.06 0.06 0.05 0.04 0.03 0.03 0.02 0.02 0.01 0.01 0.01 0.01 0.01 0.01 0.02 0.02 0.02 0.01 0.01 0.02 0.03 0.04 0.04 0.05 0.04 0.06
0.01 0.01 0.01 0.02 0.01 0.01 0.01 0.01 0.01 0.02 0.02 0.03 0.03 0.04 0.05 0.05 0.05 0.05 0.04 0.03 0.03 0.03 0.03 0.02 0.02 0.02 0.01 0.01 0.01 0.01 0.01 0.01 0.02 0.02 0.02 0.02 0.02 0.03 0.05 0.05 0.04 0.04 0.05
0.01 0.01 0.01 0.01 0.01 0.01 0.01 0.01 0.01 0.01 0.01 0.02 0.02 0.03 0.03 0.03 0.04 0.04 0.04 0.03 0.03 0.03 0.03 0.02 0.02 0.02 0.02 0.01 0.01 0.01 0.01 0.01 0.01 0.02 0.02 0.02 0.02 0.03 0.05 0.05 0.04 0.04 0.04
0.01 0.01 0.01 0.01 0.01 0.01 0.01 0.01 0.01 0.01 0.01 0.01 0.01 0.02 0.02 0.02 0.02 0.03 0.03 0.03 0.03 0.03 0.02 0.02 0.02 0.02 0.02 0.02 0.02 0.02 0.02 0.02 0.02 0.02 0.02 0.02 0.02 0.03 0.04 0.04 0.04 0.04 0.04
0.01 0.01 0.01 0.01 0.01 0.01 0.01 0.01 0.01 0.01 0.01 0.01 0.01 0.01 0.01 0.02 0.02 0.02 0.03 0.03 0.03 0.03 0.03 0.02 0.02 0.02 0.02 0.02 0.02 0.02 0.02 0.03 0.03 0.03 0.02 0.02 0.02 0.03 0.04 0.05 0.03 0.03 0.04
0.01 0.01 0.01 0.01 0.01 0.01 0.01 0.01 0.01 0.01 0.01 0.01 0.01 0.01 0.01 0.01 0.02 0.02 0.02 0.03 0.03 0.03 0.03 0.03 0.02 0.02 0.02 0.02 0.02 0.02 0.02 0.03 0.03 0.03 0.03 0.03 0.03 0.03 0.04 0.04 0.04 0.03 0.04
0.01 0.01 0.01 0.01 0.01 0.01 0.01 0.01 0.01 0.01 0.01 0.02 0.01 0.01 0.01 0.01 0.01 0.01 0.02 0.02 0.02 0.02 0.02 0.02 0.02 0.03 0.03 0.02 0.02 0.02 0.02 0.02 0.02 0.02 0.02 0.03 0.03 0.04 0.05 0.05 0.05 0.04 0.04
0.01 0.01 0.02 0.01 0.01 0.01 0.01 0.01 0.01 0.01 0.01 0.01 0.01 0.01 0.01 0.01 0.01 0.02 0.02 0.02 0.01 0.01 0.02 0.01 0.02 0.02 0.03 0.04 0.04 0.04 0.03 0.03 0.02 0.02 0.02 0.03 0.04 0.04 0.05 0.05 0.05 0.05 0.05
0.02 0.02 0.02 0.02 0.02 0.02 0.01 0.01 0.01 0.01 0.01 0.01 0.02 0.02 0.02 0.01 0.02 0.02 0.02 0.02 0.02 0.02 0.02 0.01 0.02 0.02 0.03 0.03 0.04 0.04 0.04 0.03 0.03 0.03 0.03 0.03 0.03 0.03 0.04 0.03 0.05 0.05 0.05
0.02 0.02 0.02 0.03 0.03 0.02 0.02 0.01 0.01 0.01 0.01 0.01 0.01 0.02 0.02 0.02 0.02 0.02 0.02 0.02 0.03 0.02 0.02 0.02 0.01 0.02 0.02 0.03 0.03 0.03 0.03 0.03 0.03 0.03 0.04 0.03 0.03 0.03 0.03 0.03 0.03 0.04 0.05
0.02 0.02 0.02 0.03 0.03 0.03 0.02 0.02 0.01 0.01 0.01 0.01 0.01 0.01 0.02 0.02 0.02 0.02 0.02 0.02 0.02 0.03 0.03 0.02 0.02 0.02 0.03 0.03 0.03 0.03 0.03 0.03 0.03 0.03 0.03 0.03 0.03 0.03 0.03 0.03 0.04 0.03 0.03
0.02 0.03 0.03 0.03 0.03 0.03 0.02 0.02 0.02 0.02 0.02 0.01 0.01 0.01 0.02 0.02 0.02 0.02 0.02 0.02 0.02 0.02 0.02 0.03 0.03 0.02 0.02 0.02 0.03 0.03 0.03 0.03 0.03 0.03 0.03 0.02 0.02 0.03 0.03 0.03 0.03 0.03 0.03
0.02 0.03 0.03 0.02 0.03 0.03 0.03 0.03 0.02 0.02 0.02 0.02 0.02 0.02 0.02 0.02 0.02 0.02 0.02 0.02 0.02 0.03 0.03 0.03 0.03 0.02 0.02 0.02 0.02 0.02 0.02 0.02 0.02 0.02 0.02 0.02 0.03 0.03 0.03 0.03 0.03 0.03 0.03
0.01 0.02 0.03 0.02 0.02 0.03 0.03 0.02 0.02 0.02 0.02 0.02 0.02 0.02 0.02 0.02 0.02 0.03 0.03 0.03 0.03 0.03 0.03 0.03 0.03 0.02 0.02 0.02 0.02 0.02 0.01 0.02 0.02 0.02 0.03 0.03 0.03 0.03 0.02 0.02 0.02 0.02 0.03
0.00 0.01 0.02 0.02 0.02 0.02 0.02 0.02 0.02 0.01 0.02 0.02 0.02 0.02 0.02 0.02 0.02 0.03 0.03 0.03 0.03 0.04 0.04 0.03 0.02 0.02 0.01 0.01 0.01 0.01 0.01 0.01 0.01 0.02 0.02 0.03 0.03 0.02 0.02 0.02 0.02 0.02 0.02
0.00 0.00 0.01 0.02 0.02 0.01 0.01 0.02 0.01 0.01 0.01 0.01 0.01 0.01 0.02 0.02 0.02 0.03 0.03 0.04 0.04 0.05 0.04 0.02 0.02 0.02 0.02 0.02 0.01 0.01 0.01 0.01 0.01 0.02 0.02 0.02 0.02 0.02 0.01 0.01 0.02 0.02 0.02
0.00 0.00 0.01 0.01 0.02 0.01 0.01 0.02 0.02 0.01 0.01 0.01 0.01 0.01 0.01 0.01 0.02 0.02 0.02 0.03 0.03 0.04 0.04 0.04 0.03 0.02 0.02 0.01 0.01 0.01 0.01 0.01 0.01 0.02 0.02 0.02 0.02 0.02 0.02 0.02 0.01 0.01 0.02
0.00 0.00 0.01 0.01 0.02 0.02 0.01 0.01 0.01 0.01 0.01 0.01 0.01 0.01 0.01 0.02 0.02 0.02 0.02 0.02 0.02 0.02 0.02 0.02 0.03 0.03 0.03 0.03 0.02 0.02 0.02 0.01 0.01 0.01 0.01 0.01 0.02 0.02 0.02 0.02 0.02 0.02 0.02
0.00 0.00 0.01 0.01 0.01 0.02 0.02 0.01 0.01 0.02 0.01 0.02 0.02 0.02 0.02 0.02 0.02 0.02 0.02 0.02 0.02 0.02 0.02 0.02 0.02 0.02 0.03 0.03 0.04 0.04 0.03 0.03 0.02 0.02 0.02 0.01 0.02 0.02 0.02 0.02 0.02 0.02 0.02
0.01 0.01 0.01 0.01 0.01 0.02 0.02 0.02 0.01 0.01 0.02 0.02 0.02 0.03 0.03 0.03 0.02 0.01 0.01 0.01 0.01 0.02 0.02 0.02 0.02 0.02 0.03 0.03 0.03 0.03 0.03 0.03 0.03 0.03 0.02 0.02 0.02 0.02 0.02 0.02 0.02 0.02 0.02
0.01 0.01 0.01 0.01 0.01 0.01 0.02 0.02 0.01 0.01 0.01 0.02 0.02 0.03 0.03 0.03 0.02 0.01 0.01 0.01 0.01 0.01 0.02 0.02 0.02 0.02 0.02 0.03 0.03 0.03 0.03 0.03 0.03 0.03 0.03 0.02 0.02 0.02 0.03 0.03 0.03 0.02 0.02
0.01 0.01 0.01 0.01 0.01 0.02 0.02 0.02 0.02 0.02 0.02 0.02 0.02 0.02 0.02 0.02 0.02 0.02 0.02 0.02 0.02 0.03 0.03 0.03 0.03 0.03 0.03 0.03 0.04 0.04 0.04 0.04 0.05 0.05 0.04 0.04 0.04 0.04 0.04 0.03 0.03 0.03 0.03
0.01 0.01 0.01 0.01 0.02 0.02 0.02 0.02 0.02 0.02 0.02 0.02 0.02 0.01 0.01 0.02 0.02 0.02 0.03 0.03 0.03 0.03 0.03 0.03 0.03 0.03 0.03 0.03 0.04 0.04 0.05 0.05 0.06 0.06 0.05 0.05 0.04 0.04 0.03 0.03 0.03 0.03 0.03
0.01 0.01 0.02 0.02 0.02 0.02 0.02 0.02 0.02 0.02 0.02 0.02 0.02 0.01 0.02 0.02 0.02 0.02 0.02 0.02 0.03 0.03 0.03 0.02 0.02 0.03 0.03 0.03 0.03 0.04 0.04 0.04 0.05 0.05 0.05 0.04 0.04 0.03 0.03 0.03 0.02 0.02 0.02
0.01 0.01 0.02 0.02 0.02 0.02 0.02 0.02 0.02 0.02 0.02 0.02 0.02 0.02 0.02 0.02 0.02 0.02 0.02 0.02 0.02 0.02 0.02 0.02 0.02 0.02 0.02 0.02 0.03 0.03 0.03 0.03 0.04 0.04 0.05 0.04 0.03 0.03 0.02 0.02 0.02 0.02 0.02
MSLP
1020.64 1021.43 1022.27 1023.12 1023.96 1024.74 1025.46 1026.11 1026.69 1027.22 1027.72 1028.20 1028.68 1029.16 1029.63 1030.09 1030.52 1030.90 1031.22 1031.47 1031.64 1031.75 1031.80 1031.81 1031.81 1031.82 1031.85 1031.92 1032.04 1032.21 1032.42 1032.67 1032.94 1033.21 1033.46 1033.67 1033.82 1033.90 1033.90 1033.81 1033.65 1033.41 1033.12
1021.14 1021.95 1022.81 1023.68 1024.53 1025.32 1026.05 1026.70 1027.28 1027.81 1028.30 1028.77 1029.24 1029.70 1030.17 1030.63 1031.07 1031.47 1031.83 1032.14 1032.38 1032.55 1032.68 1032.75 1032.80 1032.83 1032.86 1032.90 1032.96 1033.04 1033.16 1033.30 1033.46 1033.62 1033.78 1033.91 1034.00 1034.04 1034.01 1033.91 1033.74 1033.52 1033.24
1021.62 1022.46 1023.33 1024.22 1025.08 1025.88 1026.62 1027.28 1027.87 1028.40 1028.88 1029.34 1029.79 1030.24 1030.68 1031.12 1031.55 1031.96 1032.34 1032.68 1032.98 1033.22 1033.41 1033.56 1033.66 1033.72 1033.77 1033.79 1033.81 1033.83 1033.86 1033.89 1033.94 1034.00 1034.05 1034.09 1034.11 1034.09 1034.02 1033.90 1033.73 1033.50 1033.24
1022.05 1022.91 1023.80 1024.69 1025.56 1026.37 1027.12 1027.79 1028.39 1028.93 1029.42 1029.88 1030.32 1030.75 1031.17 1031.59 1032.00 1032.40 1032.78 1033.14 1033.46 1033.75 1034.00 1034.20 1034.35 1034.45 1034.52 1034.54 1034.53 1034.49 1034.45 1034.40 1034.35 1034.30 1034.26 1034.21 1034.15 1034.07 1033.96 1033.82 1033.63 1033.40 1033.15
1022.39 1023.27 1024.17 1025.07 1025.93 1026.75 1027.51 1028.20 1028.82 1029.39 1029.90 1030.38 1030.82 1031.24 1031.65 1032.04 1032.43 1032.81 1033.17 1033.53 1033.86 1034.17 1034.45 1034.68 1034.87 1035.00 1035.08 1035.10 1035.07 1035.00 1034.90 1034.78 1034.65 1034.51 1034.39 1034.26 1034.14 1034.01 1033.86 1033.68 1033.49 1033.26 1033.01
1022.65 1023.53 1024.43 1025.32 1026.18 1027.00 1027.77 1028.49 1029.15 1029.75 1030.31 1030.81 1031.28 1031.71 1032.12 1032.50 1032.86 1033.21 1033.55 1033.88 1034.21 1034.51 1034.79 1035.04 1035.25 1035.39 1035.48 1035.50 1035.45 1035.35 1035.21 1035.04 1034.85 1034.65 1034.46 1034.27 1034.09 1033.91 1033.73 1033.54 1033.33 1033.10 1032.85
1022.83 1023.72 1024.61 1025.48 1026.33 1027.15 1027.94 1028.68 1029.39 1030.04 1030.64 1031.19 1031.69 1032.15 1032.56 1032.94 1033.28 1033.61 1033.92 1034.22 1034.52 1034.81 1035.07 1035.32 1035.51 1035.66 1035.75 1035.76 1035.71 1035.59 1035.42 1035.21 1034.98 1034.74 1034.50 1034.27 1034.04 1033.83 1033.62 1033.40 1033.18 1032.95 1032.71
1022.97 1023.86 1024.73 1025.59 1026.43 1027.25 1028.05 1028.83 1029.57 1030.27 1030.92 1031.52 1032.06 1032.54 1032.97 1033.35 1033.68 1033.99 1034.28 1034.55 1034.81 1035.07 1035.32 1035.54 1035.72 1035.86 1035.94 1035.95 1035.89 1035.76 1035.58 1035.36 1035.10 1034.83 1034.56 1034.30 1034.04 1033.79 1033.55 1033.31 1033.07 1032.83 1032.59
1023.12 1024.00 1024.86 1025.71 1026.54 1027.37 1028.18 1028.97 1029.74 1030.48 1031.17 1031.80 1032.38 1032.88 1033.32 1033.70 1034.04 1034.33 1034.59 1034.84 1035.09 1035.32 1035.54 1035.74 1035.91 1036.04 1036.11 1036.11 1036.06 1035.93 1035.75 1035.52 1035.26 1034.98 1034.69 1034.39 1034.10 1033.81 1033.53 1033.25 1032.98 1032.72 1032.47
1023.29 1024.18 1025.04 1025.88 1026.71 1027.54 1028.36 1029.16 1029.94 1030.70 1031.40 1032.06 1032.64 1033.16 1033.60 1033.98 1034.31 1034.60 1034.86 1035.09 1035.32 1035.54 1035.75 1035.94 1036.10 1036.22 1036.29 1036.30 1036.26 1036.14 1035.98 1035.76 1035.50 1035.21 1034.89 1034.57 1034.23 1033.90 1033.57 1033.25 1032.93 1032.64 1032.36
1023.49 1024.40 1025.27 1026.13 1026.96 1027.79 1028.61 1029.41 1030.19 1030.94 1031.63 1032.27 1032.85 1033.36 1033.79 1034.17 1034.50 1034.78 1035.04 1035.28 1035.51 1035.73 1035.94 1036.13 1036.30 1036.43 1036.51 1036.54 1036.51 1036.42 1036.27 1036.07 1035.82 1035.52 1035.19 1034.83 1034.45 1034.06 1033.67 1033.28 1032.90 1032.56 1032.24
1023.71 1024.64 1025.55 1026.42 1027.27 1028.11 1028.92 1029.71 1030.47 1031.18 1031.85 1032.46 1033.00 1033.48 1033.90 1034.27 1034.59 1034.89 1035.16 1035.42 1035.66 1035.90 1036.13 1036.34 1036.52 1036.67 1036.77 1036.82 1036.82 1036.76 1036.63 1036.45 1036.21 1035.91 1035.57 1035.18 1034.75 1034.29 1033.82 1033.35 1032.90 1032.48 1032.12
1023.90 1024.88 1025.82 1026.72 1027.60 1028.44 1029.24 1030.01 1030.74 1031.41 1032.03 1032.59 1033.10 1033.54 1033.94 1034.30 1034.63 1034.93 1035.23 1035.51 1035.79 1036.06 1036.31 1036.55 1036.75 1036.92 1037.05 1037.13 1037.16 1037.13 1037.03 1036.88 1036.65 1036.36 1036.00 1035.57 1035.10 1034.57 1034.02 1033.47 1032.93 1032.43 1032.00
1024.06 1025.07 1026.05 1026.98 1027.88 1028.73 1029.53 1030.28 1030.97 1031.60 1032.18 1032.69 1033.15 1033.57 1033.95 1034.30 1034.64 1034.96 1035.29 1035.61 1035.92 1036.22 1036.51 1036.77 1037.00 1037.19 1037.35 1037.45 1037.51 1037.51 1037.44 1037.31 1037.11 1036.83 1036.46 1036.01 1035.48 1034.90 1034.28 1033.64 1033.01 1032.44 1031.93
1024.15 1025.19 1026.20 1027.16 1028.07 1028.93 1029.73 1030.47 1031.14 1031.74 1032.28 1032.76 1033.19 1033.59 1033.97 1034.33 1034.68 1035.03 1035.39 1035.74 1036.09 1036.42 1036.73 1037.01 1037.25 1037.46 1037.63 1037.75 1037.83 1037.86 1037.82 1037.72 1037.54 1037.27 1036.91 1036.45 1035.90 1035.27 1034.58 1033.87 1033.18 1032.52 1031.94
1024.21 1025.26 1026.27 1027.25 1028.17 1029.04 1029.84 1030.58 1031.24 1031.83 1032.36 1032.83 1033.26 1033.66 1034.05 1034.43 1034.81 1035.20 1035.58 1035.96 1036.33 1036.67 1036.99 1037.27 1037.51 1037.72 1037.89 1038.02 1038.11 1038.15 1038.14 1038.07 1037.92 1037.68 1037.33 1036.88 1036.32 1035.67 1034.95 1034.19 1033.43 1032.71 1032.07
1024.28 1025.30 1026.31 1027.28 1028.21 1029.09 1029.90 1030.64 1031.31 1031.91 1032.45 1032.94 1033.39 1033.82 1034.23 1034.65 1035.06 1035.47 1035.88 1036.27 1036.64 1036.98 1037.28 1037.55 1037.77 1037.96 1038.11 1038.23 1038.32 1038.37 1038.39 1038.34 1038.23 1038.02 1037.71 1037.27 1036.73 1036.08 1035.35 1034.57 1033.77 1033.01 1032.32
1024.42 1025.40 1026.38 1027.33 1028.26 1029.13 1029.95 1030.71 1031.40 1032.03 1032.60 1033.13 1033.62 1034.08 1034.53 1034.98 1035.42 1035.85 1036.26 1036.65 1037.01 1037.33 1037.60 1037.82 1038.00 1038.15 1038.28 1038.37 1038.46 1038.51 1038.54 1038.53 1038.45 1038.28 1038.01 1037.61 1037.10 1036.48 1035.76 1034.98 1034.18 1033.40 1032.69
1024.68 1025.61 1026.54 1027.47 1028.38 1029.25 1030.08 1030.85 1031.57 1032.23 1032.84 1033.40 1033.94 1034.45 1034.93 1035.41 1035.86 1036.30 1036.70 1037.07 1037.40 1037.67 1037.89 1038.07 1038.20 1038.30 1038.38 1038.45 1038.52 1038.57 1038.61 1038.62 1038.57 1038.44 1038.21 1037.87 1037.41 1036.82 1036.15 1035.40 1034.62 1033.84 1033.12
1025.12 1025.98 1026.87 1027.75 1028.64 1029.49 1030.32 1031.10 1031.84 1032.53 1033.17 1033.77 1034.34 1034.88 1035.39 1035.87 1036.33 1036.75 1037.14 1037.47 1037.74 1037.96 1038.13 1038.25 1038.32 1038.38 1038.42 1038.46 1038.50 1038.55 1038.59 1038.61 1038.58 1038.49 1038.31 1038.01 1037.60 1037.08 1036.45 1035.75 1035.01 1034.27 1033.57
1025.74 1026.54 1027.37 1028.22 1029.06 1029.89 1030.70 1031.48 1032.22 1032.92 1033.58 1034.20 1034.79 1035.33 1035.84 1036.32 1036.76 1037.15 1037.49 1037.77 1038.00 1038.16 1038.27 1038.33 1038.36 1038.37 1038.37 1038.38 1038.41 1038.44 1038.47 1038.49 1038.48 1038.41 1038.27 1038.02 1037.66 1037.20 1036.64 1036.00 1035.32 1034.64 1033.98
1026.53 1027.28 1028.06 1028.85 1029.65 1030.44 1031.22 1031.97 1032.70 1033.39 1034.04 1034.65 1035.22 1035.75 1036.24 1036.68 1037.08 1037.43 1037.72 1037.95 1038.12 1038.23 1038.29 1038.31 1038.30 1038.28 1038.25 1038.23 1038.23 1038.24 1038.26 1038.27 1038.26 1038.20 1038.08 1037.87 1037.56 1037.16 1036.67 1036.11 1035.51 1034.90 1034.31
1027.44 1028.15 1028.87 1029.61 1030.36 1031.10 1031.83 1032.54 1033.22 1033.87 1034.49 1035.06 1035.59 1036.08 1036.53 1036.92 1037.27 1037.56 1037.80 1037.98 1038.10 1038.17 1038.19 1038.18 1038.14 1038.09 1038.04 1037.99 1037.96 1037.95 1037.94 1037.93 1037.91 1037.84 1037.73 1037.54 1037.28 1036.94 1036.53 1036.06 1035.56 1035.04 1034.54
1028.44 1029.10 1029.77 1030.45 1031.13 1031.81 1032.47 1033.12 1033.75 1034.34 1034.90 1035.42 1035.89 1036.32 1036.71 1037.04 1037.33 1037.56 1037.75 1037.88 1037.96 1037.99 1037.99 1037.95 1037.89 1037.82 1037.74 1037.67 1037.61 1037.56 1037.51 1037.47 1037.41 1037.33 1037.22 1037.06 1036.84 1036.57 1036.24 1035.87 1035.47 1035.07 1034.67
1029.47 1030.08 1030.69 1031.31 1031.92 1032.53 1033.12 1033.70 1034.25 1034.77 1035.26 1035.71 1036.12 1036.48 1036.80 1037.07 1037.30 1037.47 1037.60 1037.69 1037.73 1037.74 1037.71 1037.65 1037.56 1037.47 1037.36 1037.25 1037.15 1037.05 1036.95 1036.86 1036.77 1036.67 1036.55 1036.42 1036.25 1036.05 1035.81 1035.56 1035.28 1035.00 1034.72
1030.50 1031.06 1031.61 1032.16 1032.69 1033.22 1033.74 1034.24 1034.72 1035.17 1035.59 1035.97 1036.31 1036.60 1036.85 1037.06 1037.22 1037.34 1037.42 1037.46 1037.46 1037.43 1037.37 1037.28 1037.16 1037.03 1036.88 1036.72 1036.56 1036.41 1036.26 1036.11 1035.98 1035.86 1035.74 1035.63 1035.52 1035.40 1035.27 1035.14 1035.00 1034.85 1034.69
Thickness
5441 5442 5442 5441 5441 5441 5441 5442 5441 5441 5440 5440 5439 5438 5437 5436 5434 5433 5432 5431 5429 5428 5426 5424 5422 5420 5418 5418 5417 5417 5417 5417 5419 5421 5418 5416 5416 5416 5417 5418 5419 5421 5424
5428 5429 5429 5429 5429 5429 5429 5429 5429 5428 5428 5427 5426 5425 5424 5423 5422 5421 5420 5418 5416 5415 5413 5411 5410 5408 5407 5406 5406 5405 5405 5404 5404 5406 5405 5404 5404 5404 5405 5406 5407 5408 5411
5414 5415 5416 5416 5417 5417 5417 5416 5416 5416 5415 5414 5413 5412 5411 5410 5409 5408 5407 5405 5404 5403 5401 5399 5398 5396 5395 5395 5394 5393 5393 5392 5391 5391 5392 5391 5391 5391 5392 5394 5395 5396 5398
5402 5402 5403 5403 5403 5404 5404 5403 5402 5402 5402 5400 5399 5399 5398 5397 5396 5395 5393 5392 5391 5390 5388 5387 5385 5384 5383 5382 5382 5382 5381 5381 5380 5380 5380 5380 5380 5379 5379 5381 5384 5385 5386
5389 5390 5390 5389 5390 5390 5390 5389 5389 5388 5388 5387 5386 5386 5385 5384 5383 5382 5380 5379 5379 5378 5376 5374 5373 5371 5370 5370 5370 5370 5370 5370 5369 5369 5369 5369 5370 5368 5368 5369 5370 5372 5374
5376 5376 5376 5376 5376 5376 5376 5375 5375 5374 5374 5374 5373 5372 5372 5370 5369 5368 5367 5366 5366 5365 5364 5362 5361 5359 5358 5358 5357 5358 5358 5358 5359 5359 5359 5359 5360 5358 5357 5355 5356 5357 5362
5363 5363 5363 5362 5362 5362 5362 5362 5362 5361 5360 5360 5360 5359 5359 5358 5356 5355 5354 5353 5353 5352 5351 5350 5349 5348 5347 5347 5346 5345 5346 5346 5346 5347 5348 5349 5348 5347 5345 5344 5344 5345 5347
5350 5350 5349 5349 5349 5348 5348 5348 5348 5347 5347 5347 5347 5347 5346 5345 5343 5342 5341 5341 5340 5340 5339 5338 5337 5337 5336 5335 5336 5336 5336 5336 5335 5335 5336 5337 5335 5334 5332 5331 5331 5331 5332
5337 5336 5336 5335 5335 5335 5335 5335 5334 5334 5334 5334 5334 5334 5334 5333 5330 5329 5328 5328 5329 5328 5327 5327 5325 5325 5325 5324 5325 5326 5326 5326 5324 5323 5323 5323 5323 5322 5320 5318 5317 5317 5321
5323 5322 5321 5321 5321 5321 5321 5320 5320 5320 5320 5320 5320 5320 5320 5320 5318 5317 5316 5316 5317 5317 5316 5315 5314 5314 5314 5313 5313 5314 5315 5315 5313 5312 5311 5311 5311 5310 5308 5306 5306 5305 5307
5308 5306 5306 5306 5306 5306 5306 5306 5306 5306 5306 5306 5307 5307 5307 5307 5306 5305 5304 5304 5305 5304 5304 5304 5303 5302 5302 5301 5301 5302 5302 5301 5300 5299 5299 5299 5298 5298 5296 5295 5293 5293 5295
5293 5292 5291 5291 5291 5292 5292 5291 5291 5292 5293 5293 5293 5294 5294 5293 5293 5293 5292 5292 5292 5292 5292 5292 5291 5290 5290 5289 5289 5289 5288 5286 5286 5286 5285 5286 5286 5286 5285 5283 5282 5281 5282
5278 5277 5277 5277 5277 5277 5278 5278 5278 5278 5279 5280 5281 5282 5282 5281 5280 5280 5280 5280 5280 5280 5280 5280 5279 5278 5277 5277 5276 5275 5274 5273 5272 5272 5273 5274 5273 5272 5271 5271 5271 5271 5271
5265 5264 5264 5264 5265 5264 5265 5266 5266 5266 5267 5268 5269 5270 5270 5269 5268 5268 5268 5268 5268 5267 5267 5267 5266 5265 5265 5264 5263 5262 5261 5260 5259 5260 5261 5260 5259 5259 5260 5261 5261 5261 5261
5253 5252 5252 5252 5252 5252 5253 5254 5254 5256 5256 5257 5258 5258 5258 5259 5259 5257 5257 5258 5258 5257 5255 5254 5254 5253 5252 5251 5250 5249 5248 5247 5247 5247 5247 5247 5248 5248 5249 5249 5249 5249 5250
5242 5242 5242 5241 5241 5241 5242 5243 5243 5243 5244 5243 5244 5244 5245 5246 5247 5246 5246 5246 5246 5244 5242 5242 5242 5241 5240 5239 5237 5236 5235 5235 5234 5234 5234 5235 5236 5236 5237 5238 5237 5238 5239
5230 5230 5230 5230 5230 5230 5230 5230 5232 5232 5231 5231 5232 5232 5232 5233 5234 5235 5235 5234 5233 5230 5228 5229 5229 5228 5227 5225 5224 5224 5223 5222 5221 5221 5222 5222 5223 5223 5224 5226 5226 5227 5228
5219 5218 5218 5219 5219 5218 5218 5218 5218 5219 5220 5220 5220 5220 5220 5221 5221 5222 5221 5220 5219 5217 5217 5216 5216 5214 5213 5212 5212 5211 5211 5210 5209 5210 5210 5210 5210 5211 5213 5215 5215 5216 5217
5209 5209 5208 5208 5207 5206 5205 5205 5205 5205 5206 5207 5208 5208 5208 5208 5209 5209 5208 5207 5208 5207 5206 5205 5204 5202 5201 5200 5200 5200 5200 5200 5199 5199 5199 5199 5199 5200 5201 5203 5204 5204 5204
5198 5198 5196 5197 5196 5195 5194 5193 5193 5193 5194 5194 5195 5196 5195 5196 5197 5197 5196 5196 5196 5196 5195 5194 5193 5191 5190 5189 5189 5188 5189 5189 5189 5189 5189 5189 5190 5190 5190 5192 5193 5194 5195
5188 5187 5185 5185 5185 5184 5183 5182 5182 5182 5182 5183 5184 5184 5184 5185 5186 5186 5186 5186 5185 5185 5184 5183 5182 5181 5180 5179 5179 5179 5179 5180 5180 5180 5180 5180 5180 5180 5181 5182 5183 5184 5184
5177 5176 5175 5174 5174 5173 5172 5171 5171 5171 5171 5172 5173 5173 5173 5174 5175 5175 5176 5176 5175 5175 5174 5173 5173 5172 5171 5170 5170 5170 5171 5172 5172 5171 5172 5172 5172 5172 5172 5172 5173 5174 5175
5165 5164 5164 5163 5163 5162 5161 5161 5161 5161 5162 5162 5163 5163 5163 5164 5164 5165 5166 5167 5166 5165 5164 5163 5163 5163 5163 5162 5162 5162 5163 5165 5165 5164 5164 5165 5165 5165 5165 5166 5166 5166 5167
5153 5152 5152 5152 5151 5151 5152 5152 5152 5152 5152 5152 5152 5153 5153 5154 5155 5156 5156 5156 5156 5156 5155 5154 5154 5155 5155 5154 5155 5155 5156 5157 5157 5157 5157 5158 5158 5158 5158 5159 5159 5160 5159
5141 5140 5140 5140 5140 5141 5141 5141 5142 5142 5142 5142 5143 5143 5144 5145 5146 5146 5147 5146 5145 5146 5146 5146 5147 5147 5148 5148 5149 5150 5150 5150 5150 5150 5151 5151 5152 5152 5152 5153 5153 5153 5153
5131 5130 5130 5130 5130 5130 5130 5131 5131 5132 5132 5133 5133 5134 5134 5135 5136 5137 5137 5137 5136 5137 5138 5139 5140 5140 5141 5142 5143 5144 5145 5145 5146 5146 5146 5147 5148 5148 5148 5148 5148 5147 5148